Terug naar catalogus

STARLINK-32870

ActiefCommunicatieVLEO
NORAD 63018·PAYLOAD·🇺🇸 United States

Gelanceerd Feb 15, 2025 vanaf Cape Canaveral Space Force Station

Loading…

Volgende Passages (komende 24 uur)

TLE

VersSource: CelesTrak SupGP

Epoch: Sep 15, 2026, 03:06 UTC

1 63018C 25032P   26258.12965278  .00045860  00000+0  16610-2 0  2589
2 63018  43.0022 346.2674 0001444 262.6959  21.0909 15.27556101    10

Volg STARLINK-32870 in realtime met AllMySat

Download on the App Store